This is the latest recevied weather packets stored in our database for station/object LU5DTF-1. If no packets are shown the sender has not sent any weather packets the latest 10 day(s).
| Time | Temp. | Humidity | Pressure | Rain* | Wind** | Luminosity | Snow |
|---|---|---|---|---|---|---|---|
| 1778114400 | 15.56° C | 95% | 1000.8 hPa | 6.1 mm | - | - | - |
| 1778114100 | 15.56° C | 95% | 1003.6 hPa | 6.1 mm | - | - | - |
| 1778113800 | 15.56° C | 95% | 1002.8 hPa | 6.1 mm | - | - | - |
| 1778113500 | 15.56° C | 95% | 1002.2 hPa | 5.59 mm | - | - | - |
| 1778113200 | 15.56° C | 95% | 1002.1 hPa | 5.59 mm | - | - | - |
| 1778112900 | 15.56° C | 95% | 1002.5 hPa | 5.84 mm | - | - | - |
| 1778112601 | 15.56° C | 95% | 1002.4 hPa | 7.11 mm | - | - | - |
| 1778112300 | 15.56° C | 95% | 1002.7 hPa | 7.87 mm | - | - | - |
| 1778112001 | 15.56° C | 95% | 1003 hPa | 8.64 mm | - | - | - |
| 1778111700 | 15.56° C | 95% | 1003.4 hPa | 9.91 mm | - | - | - |
| 1778111400 | 15.56° C | 95% | 1003.5 hPa | 10.92 mm | - | - | - |
| 1778111100 | 15.56° C | 95% | 1003.8 hPa | 11.43 mm | - | - | - |
| 1778110800 | 15.56° C | 95% | 1004.2 hPa | 10.41 mm | - | - | - |
| 1778110501 | 15.56° C | 95% | 1002.8 hPa | 10.67 mm | - | - | - |
| 1778110200 | 15.56° C | 95% | 1002.6 hPa | 14.48 mm | - | - | - |
| 1778109900 | 15.56° C | 95% | 1002.6 hPa | 17.02 mm | - | - | - |
| 1778109600 | 15° C | 95% | 1002.9 hPa | 19.3 mm | - | - | - |
| 1778109300 | 15° C | 95% | 1003 hPa | 20.07 mm | - | - | - |
| 1778109001 | 15° C | 94% | 1003.4 hPa | 19.81 mm | - | - | - |
| 1778108700 | 15° C | 94% | 1003.2 hPa | 19.3 mm | - | - | - |
| 1778108400 | 15° C | 94% | 1003.6 hPa | 18.8 mm | - | - | - |
| 1778108100 | 15° C | 95% | 1003.1 hPa | 18.29 mm | - | - | - |
| 1778107801 | 15° C | 94% | 1003.5 hPa | 17.78 mm | - | - | - |
| 1778107500 | 15° C | 94% | 1003.3 hPa | 17.27 mm | - | - | - |
| 1778107200 | 15° C | 94% | 1003.5 hPa | 16.26 mm | - | - | - |
* Rain latest hour (hover to see other rain measurements)
** Current wind speed in m/s (hover to see current wind gust speed)